Location: ????????
(54.8751°N, 38.5756°E)
Time: 11:29:25
(UTC+00:00)

SWAS - Visible Passes

Search period start: 28 April 2025 00:00
Search period end: 08 May 2025 00:00
Orbit: 544 x 554 km, 69.9° (Epoch: 27 April)

Date Brightness Start Highest point End Pass type
(mag) Time Alt. Az. Time Alt. Az. Time Alt. Az.
28 Apr 5.9 00:42:06 10° W 00:45:36 26° NW 00:49:08 10° NNE visible
28 Apr 6.7 21:25:28 12° ESE 21:25:28 12° ESE 21:27:04 10° E visible
28 Apr 4.3 23:01:08 40° SSW 23:02:31 77° ESE 23:06:38 10° NE visible
29 Apr 6.1 00:37:25 10° W 00:40:48 24° NW 00:44:11 10° NNE visible
29 Apr 6.5 21:20:29 15° ESE 21:20:29 15° ESE 21:22:40 10° ENE visible
29 Apr 4.3 22:56:09 40° SW 22:57:35 90° W 23:01:44 10° NE visible
30 Apr 6.3 00:32:46 10° W 00:35:59 22° NNW 00:39:13 10° NNE visible
30 Apr 6.3 21:15:28 17° ESE 21:15:28 17° ESE 21:18:03 10° ENE visible
30 Apr 4.3 22:51:08 37° SW 22:52:40 77° NW 22:56:48 10° NNE visible
01 May 6.4 00:28:06 10° W 00:31:09 20° NNW 00:34:13 10° NNE visible
01 May 6.0 21:10:23 20° ESE 21:10:23 20° ESE 21:13:21 10° ENE visible
01 May 4.5 22:46:03 33° WSW 22:47:43 66° NW 22:51:50 10° NNE visible
02 May 6.6 00:23:27 10° WNW 00:26:19 18° NNW 00:29:12 10° NNE visible
02 May 5.7 21:05:16 24° ESE 21:05:16 24° ESE 21:08:34 10° NE visible
02 May 4.8 22:40:55 29° WSW 22:42:47 56° NW 22:46:51 10° NNE visible
03 May 6.7 00:18:47 10° WNW 00:21:29 17° NNW 00:24:10 10° NNE visible
03 May 5.5 21:00:04 28° ESE 21:00:10 28° ESE 21:03:43 10° NE visible
03 May 5.0 22:35:43 25° WSW 22:37:50 48° NW 22:41:50 10° NNE visible
04 May 6.9 00:14:07 10° WNW 00:16:36 15° NNW 00:19:06 10° NNE visible
04 May 5.2 20:54:50 33° ESE 20:55:06 33° ESE 20:58:49 10° NE visible
04 May 5.3 22:30:28 21° WSW 22:32:52 42° NW 22:36:47 10° NNE visible
05 May 6.9 00:09:27 10° WNW 00:11:44 14° NNW 00:14:02 10° NNE visible
05 May 4.9 20:49:31 38° SE 20:50:01 39° ESE 20:53:52 10° NE visible
05 May 5.6 22:25:09 17° WSW 22:27:54 36° NW 22:31:44 10° NNE visible
06 May 7.0 00:04:47 10° NW 00:06:52 13° NNW 00:08:56 10° N visible
06 May 4.7 20:44:07 41° SSE 20:44:56 47° ESE 20:48:53 10° NE visible
06 May 5.8 22:19:46 13° WSW 22:22:55 32° NW 22:26:38 10° NNE visible
07 May 7.1 00:00:07 10° NW 00:01:58 13° NNW 00:03:49 10° N visible
07 May 4.4 20:38:40 40° S 20:39:50 56° ESE 20:43:52 10° NE visible
07 May 6.1 22:14:19 10° W 22:17:56 29° NW 22:21:32 10° NNE visible
07 May 7.2 23:55:26 10° NW 23:57:03 12° NNW 23:58:41 10° N visible
